Miscellaneous Local Product
Issued by NWS North Platte, NE

Home | Current Version | Previous Version | Graphics & Text | Print | Product List | Glossary On
Versions: 1 2 3 4 5 6 7 8 9 10 11 12 13 14 15 16 17 18 19 20 21 22 23 24 25 26 27 28 29 30 31 32 33 34 35 36 37 38 39 40 41 42 43 44 45 46 47 48 49 50
000
AXUS43 KLBF 211310
MISLBF


WESTERN AND NORTH CENTRAL NEBRASKA HOURLY WEATHER ROUNDUP
NATIONAL WEATHER SERVICE NORTH PLATTE NE
800 AM CDT FRI JUL 21 2017

NOTE: "FAIR" INDICATES FEW OR NO CLOUDS BELOW 12,000 FEET WITH NO
SIGNIFICANT WEATHER AND/OR OBSTRUCTIONS TO VISIBILITY.

NOTE: STATIONS NOT REPORTING VARIABLES SUCH AS SKY/WEATHER OR
PRESSURE ARE PROVIDED BY RAWS AND APRS NETWORKS AND ARE NOT UNDER
NATIONAL WEATHER SERVICE QUALITY CONTROL.

...OBSERVATIONS IN AND NEAR THE EASTERN PANHANDLE OF NEBRASKA...

CITY           SKY/WX    TMP DP  RH WIND       PRES   REMARKS
PINE RIDGE     MOSUNNY   67  66  97 CALM      29.92S
GORDON         FAIR      69  66  88 CALM      29.93R
CHADRON        CLOUDY    67  62  84 S3        29.94R
ALLIANCE       CLOUDY    67  60  78 NW5       29.99R
SIDNEY         SUNNY     71  56  58 W6        30.02S
CRESCENT LAKE    N/A     70  61  72 N8          N/A
$$

...OBSERVATIONS IN NORTHERN NEBRASKA AND FAR SOUTHERN SOUTH DAKOTA...

CITY           SKY/WX    TMP DP  RH WIND       PRES   REMARKS
WINNER         FAIR      74  68  81 CALM      29.79R
VALENTINE      CLOUDY    73  66  78 W5        29.84F
THEDFORD       CLOUDY    73  73  97 N7        29.90R FOG
AINSWORTH      CLOUDY    73  71  95 CALM      29.85F
O`NEILL        PTSUNNY   75  72  89 NE3       29.81S
ORD            SUNNY     75  63  66 S6        29.82F
BROKEN BOW     CLOUDY    75  65  70 N5        29.87R
VALENTINE NWR    N/A     71  70  98 NE9G17      N/A
HALSEY           N/A     73  73 100 CALM        N/A
BUTTE            N/A     72  69  89 E9          N/A
CHAMBERS         N/A     73  69  89 CALM        N/A
EWING            N/A     77  70  80 S3          N/A
$$

...OBSERVATIONS IN SOUTHWEST NEBRASKA AND FAR NORTHEAST COLORADO...

CITY           SKY/WX    TMP DP  RH WIND       PRES   REMARKS
HOLYOKE        FAIR      73  59  60 NW10      29.97S
IMPERIAL       SUNNY     73  66  78 W7        29.93R
OGALLALA       SUNNY     72  67  86 W5        29.93R
NORTH PLATTE   MOSUNNY   74  72  93 CALM      29.87F FOG
MCCOOK         SUNNY     74  61  63 SW7       29.87S
LEXINGTON      SUNNY     75  63  64 S6        29.86R
STAPLETON        N/A     71  69  95 CALM        N/A
GOTHENBURG       N/A     75  59  57 CALM        N/A
CALLAWAY         N/A     68  66  93 CALM        N/A
$$

...OBSERVATIONS IN CENTRAL LINCOLN COUNTY AREA...

CITY           SKY/WX    TMP DP  RH WIND       PRES   REMARKS
N.P. AIRPORT   MOSUNNY   74  72  93 CALM      29.87F FOG
N.P. DOWNTOWN    N/A     74  71  91 CALM        N/A
N.P. SOUTHEAST   N/A     73  70  91 CALM        N/A
N.P. HILLCREST   N/A     72  72 100 CALM        N/A
$$

...SOME OBSERVATIONS FROM AROUND THE REGION...

CITY           SKY/WX    TMP DP  RH WIND       PRES   REMARKS
DENVER         MOSUNNY   68  52  56 SW9       30.15R
LIMON          SUNNY     67  56  67 W9        30.14R
ASPEN          CLOUDY    56  50  80 S5        30.36R
LARAMIE        CLOUDY    57  52  83 E7        30.25R
CASPER         CLOUDY    67  52  58 SW8       30.10R
CHEYENNE       CLOUDY    70  51  51 W7G16     30.15R
SCOTTSBLUFF    CLOUDY    69  61  75 SE3       30.00R
GRAND ISLAND   SUNNY     80  64  58 S17G26    29.83R
OMAHA          CLOUDY    83  71  67 SE13      29.84S
SIOUX FALLS    LGT RAIN  73  72  96 E10       29.83F
RAPID CITY     MOSUNNY   67  64  90 SE7       29.89F
BISMARCK       CLOUDY    70  64  81 N9        29.83R
KANSAS CITY    MOSUNNY   82  73  74 SW14      29.95S
HILL CITY      SUNNY     80  60  50 W6        29.92R
WICHITA        MOSUNNY   80  70  71 S13       29.96R
DODGE CITY     SUNNY     78  62  57 S10       29.97R
OKLAHOMA CITY  MOSUNNY   79  69  71 S8        30.01S
DALLAS         MOSUNNY   84  74  71 S10       30.01R HX  91
AMARILLO       MOSUNNY   75  55  49 SW16      30.11R
$$




USA.gov is the U.S. government's official web portal to all federal, state and local government web resources and services.